Weather History for Buffalo, WY

Change the Weather History Date:

Tuesday, July 9, 2013

  Actual Average Record
Temperature  
Mean Temperature 69 °F 70 °F  
Max Temperature 82 °F 84 °F 98 °F (2005)
Min Temperature 56 °F 56 °F 46 °F (2009)
Degree Days  
Heating Degree Days 0 1  
Month to date heating degree days 0 12  
Since 1 June heating degree days 100 175  
Since 1 July heating degree days 0 12  
Cooling Degree Days 4 6  
Month to date cooling degree days 70 45  
Year to date cooling degree days 157 103  
Since 1 June cooling degree days 147 96  
Growing Degree Days 18 (Base 50)    
Moisture  
Dew Point 50 °F    
Average Humidity 55    
Maximum Humidity 77    
Minimum Humidity 33    
Precipitation  
Precipitation 0.00 in 0.05 in 0.40 in (1951)
Month to date precipitation T 0.47  
Year to date precipitation 4.08 8.27  
Sea Level Pressure  
Sea Level Pressure 30.06 in    
Wind  
Wind Speed 8 mph (NNW)    
Max Wind Speed 20 mph    
Max Gust Speed 26 mph    
Visibility 10 miles    
Events      
T = Trace of Precipitation, MM = Missing Value Source: NWS Daily Summary

Daily Weather History Graph

Daily Weather History Graph

Search for Another Location

Airport:

Trip Planner

Search our weather history database for the weather conditions in past years. The results will help you decide how hot, cold, wet, or windy it might be!

Date:

Astronomy

Jul. 09, 2013 Rise Set
Actual Time 5:31 AM MDT 8:52 PM MDT
Civil Twilight 4:56 AM MDT 9:27 PM MDT
Nautical Twilight 4:09 AM MDT 10:14 PM MDT
Astronomical Twilight 3:10 AM MDT 11:12 PM MDT
Moon 7:04 AM MDT (7/9) 9:24 PM MDT (7/9)
Length of Visible Light 16h 31m
Length of Day
15h 20m
New Moon, 2% of the Moon is Illuminated
Jul 9
New Moon
Jul 15
First Quarter
Jul 22
Full
Jul 29
Last Quarter
Aug 6
New

Hourly Weather History & Observations

Time (MDT) Temp. Dew Point Humidity Pressure Visibility Wind Dir Wind Speed Gust Speed Precip Events Conditions
12:53 AM 62.1 °F 51.1 °F 67% 29.97 in 10.0 mi East 8.1 mph - N/A   Clear
1:53 AM 60.1 °F 51.1 °F 72% 29.99 in 10.0 mi SSE 4.6 mph - N/A   Clear
2:53 AM 57.0 °F 50.0 °F 77% 29.98 in 10.0 mi SSW 9.2 mph - N/A   Clear
3:53 AM 61.0 °F 46.0 °F 58% 29.96 in 10.0 mi SW 9.2 mph - N/A   Clear
4:53 AM 60.1 °F 48.9 °F 67% 29.99 in 10.0 mi NNW 8.1 mph - N/A   Clear
5:53 AM 57.9 °F 48.0 °F 70% 30.02 in 10.0 mi NW 6.9 mph - N/A   Clear
6:53 AM 63.0 °F 46.0 °F 54% 30.02 in 10.0 mi WNW 4.6 mph - N/A   Clear
7:53 AM 66.9 °F 46.9 °F 49% 30.03 in 10.0 mi NNW 5.8 mph - N/A   Clear
8:53 AM 71.1 °F 48.9 °F 45% 30.23 in 10.0 mi North 10.4 mph - N/A   Clear
9:53 AM 73.9 °F 48.0 °F 40% 30.07 in 10.0 mi North 15.0 mph 24.2 mph N/A   Clear
10:53 AM 75.0 °F 48.0 °F 38% 30.09 in 10.0 mi North 17.3 mph 25.3 mph N/A   Clear
11:53 AM 78.1 °F 51.1 °F 39% 30.08 in 10.0 mi NNW 15.0 mph 24.2 mph N/A   Clear
12:53 PM 78.1 °F 51.1 °F 39% 30.09 in 10.0 mi NNW 12.7 mph 20.7 mph N/A   Clear
1:53 PM 79.0 °F 52.0 °F 39% 30.08 in 10.0 mi North 9.2 mph 23.0 mph N/A   Clear
2:53 PM 80.1 °F 51.1 °F 36% 30.09 in 10.0 mi North 8.1 mph 17.3 mph N/A   Clear
3:53 PM 80.1 °F 48.0 °F 32% 30.08 in 10.0 mi Variable 4.6 mph 17.3 mph N/A   Clear
4:53 PM 80.1 °F 48.0 °F 32% 30.08 in 10.0 mi NNW 8.1 mph - N/A   Clear
5:53 PM 80.1 °F 50.0 °F 35% 30.08 in 10.0 mi North 9.2 mph - N/A   Clear
6:53 PM 78.1 °F 50.0 °F 37% 30.07 in 10.0 mi NNE 9.2 mph - N/A   Clear
7:53 PM 75.9 °F 50.0 °F 40% 30.07 in 10.0 mi North 4.6 mph - N/A   Clear
8:53 PM 71.1 °F 51.1 °F 49% 30.09 in 10.0 mi Calm Calm - N/A   Clear
9:53 PM 68.0 °F 51.1 °F 55% 30.12 in 10.0 mi North 3.5 mph - N/A   Clear
10:53 PM 64.9 °F 51.1 °F 61% 30.12 in 10.0 mi Calm Calm - N/A   Clear
11:53 PM 63.0 °F 51.1 °F 65% 30.12 in 10.0 mi South 5.8 mph - N/A   Clear